Year,Month,Day,Hour,Minute,Value (Times are PST for temperature in C)
2015,08,18,00,00,18.60
2015,08,18,00,01,18.60
2015,08,18,00,02,18.60
2015,08,18,00,03,18.50
2015,08,18,00,04,18.50
2015,08,18,00,05,18.50
2015,08,18,00,06,18.50
2015,08,18,00,07,18.40
2015,08,18,00,08,18.40
2015,08,18,00,09,18.40
2015,08,18,00,10,18.30
2015,08,18,00,11,18.30
2015,08,18,00,12,18.30
2015,08,18,00,13,18.20
2015,08,18,00,14,18.20
2015,08,18,00,15,18.20
2015,08,18,00,16,18.20
2015,08,18,00,17,18.10
2015,08,18,00,18,18.10
2015,08,18,00,19,18.10
2015,08,18,00,20,18.10
2015,08,18,00,21,18.10
2015,08,18,00,22,18.00
2015,08,18,00,23,18.00
2015,08,18,00,24,18.00
2015,08,18,00,25,18.00
2015,08,18,00,26,17.90
2015,08,18,00,27,17.90
2015,08,18,00,28,17.90
2015,08,18,00,29,17.90
2015,08,18,00,30,17.90
2015,08,18,00,31,17.80
2015,08,18,00,32,17.80
2015,08,18,00,33,17.80
2015,08,18,00,34,17.80
2015,08,18,00,35,17.80
2015,08,18,00,36,17.70
2015,08,18,00,37,17.70
2015,08,18,00,38,17.70
2015,08,18,00,39,17.70
2015,08,18,00,40,17.60
2015,08,18,00,41,17.60
2015,08,18,00,42,17.60
2015,08,18,00,43,17.60
2015,08,18,00,44,17.60
2015,08,18,00,45,17.50
2015,08,18,00,46,17.50
2015,08,18,00,47,17.50
2015,08,18,00,48,17.50
2015,08,18,00,49,17.50
2015,08,18,00,50,17.40
2015,08,18,00,51,17.40
2015,08,18,00,52,17.40
2015,08,18,00,53,17.40
2015,08,18,00,54,17.40
2015,08,18,00,55,17.40
2015,08,18,00,56,17.40
2015,08,18,00,57,17.40
2015,08,18,00,58,17.40
2015,08,18,00,59,17.40
2015,08,18,01,00,17.40
2015,08,18,01,01,17.30
2015,08,18,01,02,17.30
2015,08,18,01,03,17.30
2015,08,18,01,04,17.30
2015,08,18,01,05,17.30
2015,08,18,01,06,17.30
2015,08,18,01,07,17.20
2015,08,18,01,08,17.20
2015,08,18,01,09,17.20
2015,08,18,01,10,17.20
2015,08,18,01,11,17.20
2015,08,18,01,12,17.10
2015,08,18,01,13,17.10
2015,08,18,01,14,17.10
2015,08,18,01,15,17.10
2015,08,18,01,16,17.10
2015,08,18,01,17,17.00
2015,08,18,01,18,17.00
2015,08,18,01,19,17.00
2015,08,18,01,20,17.00
2015,08,18,01,21,17.00
2015,08,18,01,22,16.90
2015,08,18,01,23,16.90
2015,08,18,01,24,16.90
2015,08,18,01,25,16.90
2015,08,18,01,26,16.90
2015,08,18,01,27,16.90
2015,08,18,01,28,16.80
2015,08,18,01,29,16.80
2015,08,18,01,30,16.80
2015,08,18,01,31,16.80
2015,08,18,01,32,16.80
2015,08,18,01,33,16.70
2015,08,18,01,34,16.70
2015,08,18,01,35,16.70
2015,08,18,01,36,16.70
2015,08,18,01,37,16.60
2015,08,18,01,38,16.60
2015,08,18,01,39,16.60
2015,08,18,01,40,16.60
2015,08,18,01,41,16.50
2015,08,18,01,42,16.50
2015,08,18,01,43,16.40
2015,08,18,01,44,16.40
2015,08,18,01,45,16.40
2015,08,18,01,46,16.40
2015,08,18,01,47,16.30
2015,08,18,01,48,16.30
2015,08,18,01,49,16.30
2015,08,18,01,50,16.30
2015,08,18,01,51,16.30
2015,08,18,01,52,16.30
2015,08,18,01,53,16.20
2015,08,18,01,54,16.20
2015,08,18,01,55,16.20
2015,08,18,01,56,16.20
2015,08,18,01,57,16.20
2015,08,18,01,58,16.20
2015,08,18,01,59,16.20
2015,08,18,02,00,16.20
2015,08,18,02,01,16.10
2015,08,18,02,02,16.10
2015,08,18,02,03,16.10
2015,08,18,02,04,16.10
2015,08,18,02,05,16.00
2015,08,18,02,06,16.00
2015,08,18,02,07,16.00
2015,08,18,02,08,16.00
2015,08,18,02,09,15.90
2015,08,18,02,10,15.90
2015,08,18,02,11,15.90
2015,08,18,02,12,15.90
2015,08,18,02,13,15.90
2015,08,18,02,14,15.90
2015,08,18,02,15,15.90
2015,08,18,02,16,15.90
2015,08,18,02,17,15.90
2015,08,18,02,18,15.90
2015,08,18,02,19,15.90
2015,08,18,02,20,15.90
2015,08,18,02,21,15.90
2015,08,18,02,22,15.90
2015,08,18,02,23,15.90
2015,08,18,02,24,15.90
2015,08,18,02,25,15.90
2015,08,18,02,26,15.80
2015,08,18,02,27,15.80
2015,08,18,02,28,15.80
2015,08,18,02,29,15.80
2015,08,18,02,30,15.80
2015,08,18,02,31,15.80
2015,08,18,02,32,15.80
2015,08,18,02,33,15.80
2015,08,18,02,34,15.80
2015,08,18,02,35,15.80
2015,08,18,02,36,15.80
2015,08,18,02,37,15.80
2015,08,18,02,38,15.80
2015,08,18,02,39,15.80
2015,08,18,02,40,15.70
2015,08,18,02,41,15.70
2015,08,18,02,42,15.70
2015,08,18,02,43,15.60
2015,08,18,02,44,15.60
2015,08,18,02,45,15.60
2015,08,18,02,46,15.60
2015,08,18,02,47,15.60
2015,08,18,02,48,15.50
2015,08,18,02,49,15.50
2015,08,18,02,50,15.50
2015,08,18,02,51,15.40
2015,08,18,02,52,15.40
2015,08,18,02,53,15.40
2015,08,18,02,54,15.40
2015,08,18,02,55,15.40
2015,08,18,02,56,15.40
2015,08,18,02,57,15.40
2015,08,18,02,58,15.40
2015,08,18,02,59,15.40
2015,08,18,03,00,15.30
2015,08,18,03,01,15.30
2015,08,18,03,02,15.30
2015,08,18,03,03,15.30
2015,08,18,03,04,15.30
2015,08,18,03,05,15.30
2015,08,18,03,06,15.30
2015,08,18,03,07,15.30
2015,08,18,03,08,15.30
2015,08,18,03,09,15.30
2015,08,18,03,10,15.20
2015,08,18,03,11,15.20
2015,08,18,03,12,15.20
2015,08,18,03,13,15.20
2015,08,18,03,14,15.10
2015,08,18,03,15,15.10
2015,08,18,03,16,15.10
2015,08,18,03,17,15.10
2015,08,18,03,18,15.10
2015,08,18,03,19,15.00
2015,08,18,03,20,15.00
2015,08,18,03,21,15.00
2015,08,18,03,22,14.90
2015,08,18,03,23,14.90
2015,08,18,03,24,14.90
2015,08,18,03,25,14.90
2015,08,18,03,26,14.90
2015,08,18,03,27,14.80
2015,08,18,03,28,14.80
2015,08,18,03,29,14.80
2015,08,18,03,30,14.80
2015,08,18,03,31,14.80
2015,08,18,03,32,14.80
2015,08,18,03,33,14.70
2015,08,18,03,34,14.70
2015,08,18,03,35,14.70
2015,08,18,03,36,14.70
2015,08,18,03,37,14.70
2015,08,18,03,38,14.70
2015,08,18,03,39,14.70
2015,08,18,03,40,14.60
2015,08,18,03,41,14.60
2015,08,18,03,42,14.60
2015,08,18,03,43,14.60
2015,08,18,03,44,14.60
2015,08,18,03,45,14.60
2015,08,18,03,46,14.60
2015,08,18,03,47,14.50
2015,08,18,03,48,14.50
2015,08,18,03,49,14.50
2015,08,18,03,50,14.50
2015,08,18,03,51,14.40
2015,08,18,03,52,14.40
2015,08,18,03,53,14.40
2015,08,18,03,54,14.40
2015,08,18,03,55,14.40
2015,08,18,03,56,14.40
2015,08,18,03,57,14.40
2015,08,18,03,58,14.40
2015,08,18,03,59,14.40
2015,08,18,04,00,14.40
2015,08,18,04,01,14.40
2015,08,18,04,02,14.30
2015,08,18,04,03,14.30
2015,08,18,04,04,14.30
2015,08,18,04,05,14.40
2015,08,18,04,06,14.40
2015,08,18,04,07,14.40
2015,08,18,04,08,14.40
2015,08,18,04,09,14.40
2015,08,18,04,10,14.40
2015,08,18,04,11,14.40
2015,08,18,04,12,14.40
2015,08,18,04,13,14.40
2015,08,18,04,14,14.40
2015,08,18,04,15,14.30
2015,08,18,04,16,14.30
2015,08,18,04,17,14.30
2015,08,18,04,18,14.30
2015,08,18,04,19,14.30
2015,08,18,04,20,14.30
2015,08,18,04,21,14.30
2015,08,18,04,22,14.30
2015,08,18,04,23,14.30
2015,08,18,04,24,14.30
2015,08,18,04,25,14.40
2015,08,18,04,26,14.40
2015,08,18,04,27,14.40
2015,08,18,04,28,14.40
2015,08,18,04,29,14.40
2015,08,18,04,30,14.40
2015,08,18,04,31,14.40
2015,08,18,04,32,14.40
2015,08,18,04,33,14.40
2015,08,18,04,34,14.40
2015,08,18,04,35,14.40
2015,08,18,04,36,14.40
2015,08,18,04,37,14.40
2015,08,18,04,38,14.30
2015,08,18,04,39,14.30
2015,08,18,04,40,14.30
2015,08,18,04,41,14.30
2015,08,18,04,42,14.30
2015,08,18,04,43,14.30
2015,08,18,04,44,14.20
2015,08,18,04,45,14.20
2015,08,18,04,46,14.20
2015,08,18,04,47,14.20
2015,08,18,04,48,14.20
2015,08,18,04,49,14.20
2015,08,18,04,50,14.20
2015,08,18,04,51,14.20
2015,08,18,04,52,14.20
2015,08,18,04,53,14.10
2015,08,18,04,54,14.10
2015,08,18,04,55,14.10
2015,08,18,04,56,14.20
2015,08,18,04,57,14.10
2015,08,18,04,58,14.20
2015,08,18,04,59,14.20
2015,08,18,05,00,14.20
2015,08,18,05,01,14.20
2015,08,18,05,02,14.20
2015,08,18,05,03,14.20
2015,08,18,05,04,14.20
2015,08,18,05,05,14.10
2015,08,18,05,06,14.10
2015,08,18,05,07,14.10
2015,08,18,05,08,14.10
2015,08,18,05,09,14.10
2015,08,18,05,10,14.10
2015,08,18,05,11,14.00
2015,08,18,05,12,14.00
2015,08,18,05,13,14.00
2015,08,18,05,14,14.00
2015,08,18,05,15,14.00
2015,08,18,05,16,14.00
2015,08,18,05,17,14.00
2015,08,18,05,18,14.00
2015,08,18,05,19,14.00
2015,08,18,05,20,14.00
2015,08,18,05,21,14.00
2015,08,18,05,22,14.00
2015,08,18,05,23,13.90
2015,08,18,05,24,13.90
2015,08,18,05,25,13.90
2015,08,18,05,26,13.90
2015,08,18,05,27,13.90
2015,08,18,05,28,13.90
2015,08,18,05,29,13.90
2015,08,18,05,30,13.90
2015,08,18,05,31,13.80
2015,08,18,05,32,13.80
2015,08,18,05,33,13.80
2015,08,18,05,34,13.80
2015,08,18,05,35,13.80
2015,08,18,05,36,13.80
2015,08,18,05,37,13.80
2015,08,18,05,38,13.80
2015,08,18,05,39,13.80
2015,08,18,05,40,13.80
2015,08,18,05,41,13.80
2015,08,18,05,42,13.80
2015,08,18,05,43,13.80
2015,08,18,05,44,13.80
2015,08,18,05,45,13.70
2015,08,18,05,46,13.80
2015,08,18,05,47,13.70
2015,08,18,05,48,13.70
2015,08,18,05,49,13.70
2015,08,18,05,50,13.70
2015,08,18,05,51,13.70
2015,08,18,05,52,13.70
2015,08,18,05,53,13.60
2015,08,18,05,54,13.60
2015,08,18,05,55,13.60
2015,08,18,05,56,13.60
2015,08,18,05,57,13.60
2015,08,18,05,58,13.60
2015,08,18,05,59,13.50
2015,08,18,06,00,13.50
2015,08,18,06,01,13.40
2015,08,18,06,02,13.40
2015,08,18,06,03,13.40
2015,08,18,06,04,13.40
2015,08,18,06,05,13.30
2015,08,18,06,06,13.30
2015,08,18,06,07,13.30
2015,08,18,06,08,13.30
2015,08,18,06,09,13.30
2015,08,18,06,10,13.30
2015,08,18,06,11,13.20
2015,08,18,06,12,13.20
2015,08,18,06,13,13.20
2015,08,18,06,14,13.20
2015,08,18,06,15,13.20
2015,08,18,06,16,13.20
2015,08,18,06,17,13.20
2015,08,18,06,18,13.20
2015,08,18,06,19,13.20
2015,08,18,06,20,13.20
2015,08,18,06,21,13.20
2015,08,18,06,22,13.10
2015,08,18,06,23,13.10
2015,08,18,06,24,13.10
2015,08,18,06,25,13.10
2015,08,18,06,26,13.10
2015,08,18,06,27,13.10
2015,08,18,06,28,13.10
2015,08,18,06,29,13.10
2015,08,18,06,30,13.10
2015,08,18,06,31,13.00
2015,08,18,06,32,13.00
2015,08,18,06,33,13.00
2015,08,18,06,34,13.00
2015,08,18,06,35,13.00
2015,08,18,06,36,13.00
2015,08,18,06,37,13.00
2015,08,18,06,38,13.10
2015,08,18,06,39,13.10
2015,08,18,06,40,13.10
2015,08,18,06,41,13.00
2015,08,18,06,42,13.10
2015,08,18,06,43,13.10
2015,08,18,06,44,13.10
2015,08,18,06,45,13.10
2015,08,18,06,46,13.10
2015,08,18,06,47,13.20
2015,08,18,06,48,13.20
2015,08,18,06,49,13.20
2015,08,18,06,50,13.20
2015,08,18,06,51,13.20
2015,08,18,06,52,13.30
2015,08,18,06,53,13.30
2015,08,18,06,54,13.30
2015,08,18,06,55,13.30
2015,08,18,06,56,13.30
2015,08,18,06,57,13.30
2015,08,18,06,58,13.30
2015,08,18,06,59,13.30
2015,08,18,07,00,13.40
2015,08,18,07,01,13.40
2015,08,18,07,02,13.40
2015,08,18,07,03,13.40
2015,08,18,07,04,13.40
2015,08,18,07,05,13.40
2015,08,18,07,06,13.40
2015,08,18,07,07,13.40
2015,08,18,07,08,13.40
2015,08,18,07,09,13.50
2015,08,18,07,10,13.50
2015,08,18,07,11,13.50
2015,08,18,07,12,13.50
2015,08,18,07,13,13.60
2015,08,18,07,14,13.60
2015,08,18,07,15,13.60
2015,08,18,07,16,13.60
2015,08,18,07,17,13.70
2015,08,18,07,18,13.70
2015,08,18,07,19,13.70
2015,08,18,07,20,13.80
2015,08,18,07,21,13.80
2015,08,18,07,22,13.80
2015,08,18,07,23,13.90
2015,08,18,07,24,13.90
2015,08,18,07,25,13.90
2015,08,18,07,26,14.00
2015,08,18,07,27,14.10
2015,08,18,07,28,14.20
2015,08,18,07,29,14.20
2015,08,18,07,30,14.30
2015,08,18,07,31,14.30
2015,08,18,07,32,14.30
2015,08,18,07,33,14.40
2015,08,18,07,34,14.40
2015,08,18,07,35,14.40
2015,08,18,07,36,14.50
2015,08,18,07,37,14.50
2015,08,18,07,38,14.60
2015,08,18,07,39,14.60
2015,08,18,07,40,14.70
2015,08,18,07,41,14.70
2015,08,18,07,42,14.80
2015,08,18,07,43,14.80
2015,08,18,07,44,14.80
2015,08,18,07,45,14.80
2015,08,18,07,46,14.90
2015,08,18,07,47,14.90
2015,08,18,07,48,14.90
2015,08,18,07,49,15.00
2015,08,18,07,50,15.00
2015,08,18,07,51,15.10
2015,08,18,07,52,15.10
2015,08,18,07,53,15.20
2015,08,18,07,54,15.20
2015,08,18,07,55,15.30
2015,08,18,07,56,15.40
2015,08,18,07,57,15.40
2015,08,18,07,58,15.40
2015,08,18,07,59,15.50
2015,08,18,08,00,15.50
2015,08,18,08,01,15.60
2015,08,18,08,02,15.60
2015,08,18,08,03,15.60
2015,08,18,08,04,15.70
2015,08,18,08,05,15.70
2015,08,18,08,06,15.70
2015,08,18,08,07,15.70
2015,08,18,08,08,15.70
2015,08,18,08,09,15.80
2015,08,18,08,10,15.80
2015,08,18,08,11,15.90
2015,08,18,08,12,15.90
2015,08,18,08,13,16.00
2015,08,18,08,14,16.10
2015,08,18,08,15,16.10
2015,08,18,08,16,16.20
2015,08,18,08,17,16.20
2015,08,18,08,18,16.30
2015,08,18,08,19,16.40
2015,08,18,08,20,16.40
2015,08,18,08,21,16.50
2015,08,18,08,22,16.50
2015,08,18,08,23,16.60
2015,08,18,08,24,16.70
2015,08,18,08,25,16.70
2015,08,18,08,26,16.80
2015,08,18,08,27,16.80
2015,08,18,08,28,16.90
2015,08,18,08,29,16.90
2015,08,18,08,30,17.00
2015,08,18,08,31,17.00
2015,08,18,08,32,17.10
2015,08,18,08,33,17.20
2015,08,18,08,34,17.30
2015,08,18,08,35,17.30
2015,08,18,08,36,17.40
2015,08,18,08,37,17.50
2015,08,18,08,38,17.60
2015,08,18,08,39,17.70
2015,08,18,08,40,17.80
2015,08,18,08,41,17.90
2015,08,18,08,42,18.00
2015,08,18,08,43,18.10
2015,08,18,08,44,18.20
2015,08,18,08,45,18.20
2015,08,18,08,46,18.30
2015,08,18,08,47,18.30
2015,08,18,08,48,18.40
2015,08,18,08,49,18.50
2015,08,18,08,50,18.50
2015,08,18,08,51,18.60
2015,08,18,08,52,18.70
2015,08,18,08,53,18.70
2015,08,18,08,54,18.80
2015,08,18,08,55,18.90
2015,08,18,08,56,19.00
2015,08,18,08,57,19.10
2015,08,18,08,58,19.20
2015,08,18,08,59,19.40
2015,08,18,09,00,19.50
2015,08,18,09,01,19.70
2015,08,18,09,02,19.80
2015,08,18,09,03,19.90
2015,08,18,09,04,20.10
2015,08,18,09,05,20.20
2015,08,18,09,06,20.30
2015,08,18,09,07,20.30
2015,08,18,09,08,20.40
2015,08,18,09,09,20.40
2015,08,18,09,10,20.40
2015,08,18,09,11,20.40
2015,08,18,09,12,20.50
2015,08,18,09,13,20.50
2015,08,18,09,14,20.60
2015,08,18,09,15,20.60
2015,08,18,09,16,20.70
2015,08,18,09,17,20.70
2015,08,18,09,18,20.80
2015,08,18,09,19,20.80
2015,08,18,09,20,20.90
2015,08,18,09,21,20.90
2015,08,18,09,22,20.90
2015,08,18,09,23,20.90
2015,08,18,09,24,21.00
2015,08,18,09,25,21.00
2015,08,18,09,26,21.00
2015,08,18,09,27,21.00
2015,08,18,09,28,21.10
2015,08,18,09,29,21.10
2015,08,18,09,30,21.10
2015,08,18,09,31,21.10
2015,08,18,09,32,21.20
2015,08,18,09,33,21.20
2015,08,18,09,34,21.20
2015,08,18,09,35,21.30
2015,08,18,09,36,21.30
2015,08,18,09,37,21.30
2015,08,18,09,38,21.30
2015,08,18,09,39,21.40
2015,08,18,09,40,21.40
2015,08,18,09,41,21.40
2015,08,18,09,42,21.40
2015,08,18,09,43,21.40
2015,08,18,09,44,21.40
2015,08,18,09,45,21.40
2015,08,18,09,46,21.40
2015,08,18,09,47,21.40
2015,08,18,09,48,21.40
2015,08,18,09,49,21.50
2015,08,18,09,50,21.50
2015,08,18,09,51,21.60
2015,08,18,09,52,21.60
2015,08,18,09,53,21.70
2015,08,18,09,54,21.70
2015,08,18,09,55,21.80
2015,08,18,09,56,21.90
2015,08,18,09,57,22.00
2015,08,18,09,58,22.00
2015,08,18,09,59,22.10
2015,08,18,10,00,22.20
2015,08,18,10,01,22.30
2015,08,18,10,02,22.30
2015,08,18,10,03,22.30
2015,08,18,10,04,22.20
2015,08,18,10,05,22.20
2015,08,18,10,06,22.20
2015,08,18,10,07,22.20
2015,08,18,10,08,22.20
2015,08,18,10,09,22.20
2015,08,18,10,10,22.30
2015,08,18,10,11,22.30
2015,08,18,10,12,22.40
2015,08,18,10,13,22.50
2015,08,18,10,14,22.60
2015,08,18,10,15,22.70
2015,08,18,10,16,22.80
2015,08,18,10,17,22.80
2015,08,18,10,18,22.80
2015,08,18,10,19,22.70
2015,08,18,10,20,22.70
2015,08,18,10,21,22.70
2015,08,18,10,22,22.70
2015,08,18,10,23,22.70
2015,08,18,10,24,22.80
2015,08,18,10,25,22.80
2015,08,18,10,26,22.90
2015,08,18,10,27,22.90
2015,08,18,10,28,22.90
2015,08,18,10,29,22.90
2015,08,18,10,30,22.90
2015,08,18,10,31,23.00
2015,08,18,10,32,23.00
2015,08,18,10,33,23.10
2015,08,18,10,34,23.10
2015,08,18,10,35,23.10
2015,08,18,10,36,23.10
2015,08,18,10,37,23.10
2015,08,18,10,38,23.10
2015,08,18,10,39,23.20
2015,08,18,10,40,23.10
2015,08,18,10,41,23.10
2015,08,18,10,42,23.10
2015,08,18,10,43,23.10
2015,08,18,10,44,23.10
2015,08,18,10,45,23.10
2015,08,18,10,46,23.30
2015,08,18,10,47,23.40
2015,08,18,10,48,23.50
2015,08,18,10,49,23.60
2015,08,18,10,50,23.60
2015,08,18,10,51,23.70
2015,08,18,10,52,23.60
2015,08,18,10,53,23.60
2015,08,18,10,54,23.50
2015,08,18,10,55,23.50
2015,08,18,10,56,23.60
2015,08,18,10,57,23.60
2015,08,18,10,58,23.60
2015,08,18,10,59,23.70
2015,08,18,11,00,23.70
2015,08,18,11,01,23.70
2015,08,18,11,02,23.70
2015,08,18,11,03,23.70
2015,08,18,11,04,23.70
2015,08,18,11,05,23.80
2015,08,18,11,06,23.80
2015,08,18,11,07,23.90
2015,08,18,11,08,23.90
2015,08,18,11,09,24.00
2015,08,18,11,10,24.10
2015,08,18,11,11,24.20
2015,08,18,11,12,24.30
2015,08,18,11,13,24.40
2015,08,18,11,14,24.50
2015,08,18,11,15,24.60
2015,08,18,11,16,24.70
2015,08,18,11,17,24.70
2015,08,18,11,18,24.70
2015,08,18,11,19,24.80
2015,08,18,11,20,24.70
2015,08,18,11,21,24.70
2015,08,18,11,22,24.70
2015,08,18,11,23,24.70
2015,08,18,11,24,24.60
2015,08,18,11,25,24.60
2015,08,18,11,26,24.60
2015,08,18,11,27,24.60
2015,08,18,11,28,24.60
2015,08,18,11,29,24.60
2015,08,18,11,30,24.60
2015,08,18,11,31,24.60
2015,08,18,11,32,24.70
2015,08,18,11,33,24.70
2015,08,18,11,34,24.70
2015,08,18,11,35,24.70
2015,08,18,11,36,24.80
2015,08,18,11,37,24.80
2015,08,18,11,38,24.80
2015,08,18,11,39,24.80
2015,08,18,11,40,24.90
2015,08,18,11,41,25.00
2015,08,18,11,42,25.00
2015,08,18,11,43,25.10
2015,08,18,11,44,25.10
2015,08,18,11,45,25.20
2015,08,18,11,46,25.20
2015,08,18,11,47,25.20
2015,08,18,11,48,25.20
2015,08,18,11,49,25.20
2015,08,18,11,50,25.20
2015,08,18,11,51,25.20
2015,08,18,11,52,25.30
2015,08,18,11,53,25.30
2015,08,18,11,54,25.40
2015,08,18,11,55,25.40
2015,08,18,11,56,25.40
2015,08,18,11,57,25.50
2015,08,18,11,58,25.50
2015,08,18,11,59,25.70
2015,08,18,12,00,25.80
2015,08,18,12,01,25.90
2015,08,18,12,02,26.00
2015,08,18,12,03,26.10
2015,08,18,12,04,26.10
2015,08,18,12,05,26.20
2015,08,18,12,06,26.20
2015,08,18,12,07,26.20
2015,08,18,12,08,26.20
2015,08,18,12,09,26.20
2015,08,18,12,10,26.20
2015,08,18,12,11,26.20
2015,08,18,12,12,26.20
2015,08,18,12,13,26.20
2015,08,18,12,14,26.20
2015,08,18,12,15,26.20
2015,08,18,12,16,26.30
2015,08,18,12,17,26.30
2015,08,18,12,18,26.30
2015,08,18,12,19,26.30
2015,08,18,12,20,26.30
2015,08,18,12,21,26.30
2015,08,18,12,22,26.30
2015,08,18,12,23,26.30
2015,08,18,12,24,26.40
2015,08,18,12,25,26.40
2015,08,18,12,26,26.40
2015,08,18,12,27,26.40
2015,08,18,12,28,26.50
2015,08,18,12,29,26.50
2015,08,18,12,30,26.50
2015,08,18,12,31,26.50
2015,08,18,12,32,26.50
2015,08,18,12,33,26.40
2015,08,18,12,34,26.30
2015,08,18,12,35,26.40
2015,08,18,12,36,26.40
2015,08,18,12,37,26.40
2015,08,18,12,38,26.40
2015,08,18,12,39,26.40
2015,08,18,12,40,26.50
2015,08,18,12,41,26.60
2015,08,18,12,42,26.70
2015,08,18,12,43,26.70
2015,08,18,12,44,26.80
2015,08,18,12,45,26.90
2015,08,18,12,46,26.90
2015,08,18,12,47,26.90
2015,08,18,12,48,26.90
2015,08,18,12,49,26.90
2015,08,18,12,50,26.90
2015,08,18,12,51,27.00
2015,08,18,12,52,27.10
2015,08,18,12,53,27.10
2015,08,18,12,54,27.10
2015,08,18,12,55,27.10
2015,08,18,12,56,27.10
2015,08,18,12,57,27.20
2015,08,18,12,58,27.30
2015,08,18,12,59,27.30
2015,08,18,13,00,27.30
2015,08,18,13,01,27.20
2015,08,18,13,02,27.30
2015,08,18,13,03,27.30
2015,08,18,13,04,27.30
2015,08,18,13,05,27.30
2015,08,18,13,06,27.30
2015,08,18,13,07,27.40
2015,08,18,13,08,27.40
2015,08,18,13,09,27.30
2015,08,18,13,10,27.30
2015,08,18,13,11,27.30
2015,08,18,13,12,27.40
2015,08,18,13,13,27.50
2015,08,18,13,14,27.50
2015,08,18,13,15,27.60
2015,08,18,13,16,27.70
2015,08,18,13,17,27.80
2015,08,18,13,18,27.80
2015,08,18,13,19,27.80
2015,08,18,13,20,27.90
2015,08,18,13,21,27.90
2015,08,18,13,22,27.90
2015,08,18,13,23,27.90
2015,08,18,13,24,28.00
2015,08,18,13,25,28.00
2015,08,18,13,26,28.10
2015,08,18,13,27,28.20
2015,08,18,13,28,28.20
2015,08,18,13,29,28.10
2015,08,18,13,30,28.10
2015,08,18,13,31,28.00
2015,08,18,13,32,28.00
2015,08,18,13,33,28.10
2015,08,18,13,34,28.10
2015,08,18,13,35,28.10
2015,08,18,13,36,28.10
2015,08,18,13,37,28.20
2015,08,18,13,38,28.30
2015,08,18,13,39,28.40
2015,08,18,13,40,28.40
2015,08,18,13,41,28.40
2015,08,18,13,42,28.40
2015,08,18,13,43,28.40
2015,08,18,13,44,28.50
2015,08,18,13,45,28.50
2015,08,18,13,46,28.50
2015,08,18,13,47,28.50
2015,08,18,13,48,28.50
2015,08,18,13,49,28.50
2015,08,18,13,50,28.60
2015,08,18,13,51,28.60
2015,08,18,13,52,28.70
2015,08,18,13,53,28.60
2015,08,18,13,54,28.60
2015,08,18,13,55,28.60
2015,08,18,13,56,28.60
2015,08,18,13,57,28.60
2015,08,18,13,58,28.60
2015,08,18,13,59,28.70
2015,08,18,14,00,28.80
2015,08,18,14,01,28.80
2015,08,18,14,02,28.80
2015,08,18,14,03,28.80
2015,08,18,14,04,28.70
2015,08,18,14,05,28.70
2015,08,18,14,06,28.70
2015,08,18,14,07,28.70
2015,08,18,14,08,28.70
2015,08,18,14,09,28.70
2015,08,18,14,10,28.80
2015,08,18,14,11,28.80
2015,08,18,14,12,28.70
2015,08,18,14,13,28.80
2015,08,18,14,14,28.80
2015,08,18,14,15,28.80
2015,08,18,14,16,28.80
2015,08,18,14,17,28.80
2015,08,18,14,18,28.80
2015,08,18,14,19,28.90
2015,08,18,14,20,28.90
2015,08,18,14,21,28.90
2015,08,18,14,22,28.90
2015,08,18,14,23,28.90
2015,08,18,14,24,28.90
2015,08,18,14,25,28.90
2015,08,18,14,26,29.00
2015,08,18,14,27,29.00
2015,08,18,14,28,29.10
2015,08,18,14,29,29.20
2015,08,18,14,30,29.30
2015,08,18,14,31,29.30
2015,08,18,14,32,29.30
2015,08,18,14,33,29.40
2015,08,18,14,34,29.40
2015,08,18,14,35,29.50
2015,08,18,14,36,29.60
2015,08,18,14,37,29.60
2015,08,18,14,38,29.50
2015,08,18,14,39,29.50
2015,08,18,14,40,29.40
2015,08,18,14,41,29.30
2015,08,18,14,42,29.30
2015,08,18,14,43,29.30
2015,08,18,14,44,29.30
2015,08,18,14,45,29.40
2015,08,18,14,46,29.50
2015,08,18,14,47,29.60
2015,08,18,14,48,29.60
2015,08,18,14,49,29.70
2015,08,18,14,50,29.70
2015,08,18,14,51,29.70
2015,08,18,14,52,29.70
2015,08,18,14,53,29.70
2015,08,18,14,54,29.70
2015,08,18,14,55,29.70
2015,08,18,14,56,29.80
2015,08,18,14,57,29.80
2015,08,18,14,58,29.80
2015,08,18,14,59,29.80
2015,08,18,15,00,29.90
2015,08,18,15,01,29.90
2015,08,18,15,02,29.90
2015,08,18,15,03,30.00
2015,08,18,15,04,30.00
2015,08,18,15,05,30.10
2015,08,18,15,06,30.20
2015,08,18,15,07,30.30
2015,08,18,15,08,30.40
2015,08,18,15,09,30.50
2015,08,18,15,10,30.50
2015,08,18,15,11,30.60
2015,08,18,15,12,30.60
2015,08,18,15,13,30.60
2015,08,18,15,14,30.60
2015,08,18,15,15,30.60
2015,08,18,15,16,30.50
2015,08,18,15,17,30.50
2015,08,18,15,18,30.50
2015,08,18,15,19,30.40
2015,08,18,15,20,30.40
2015,08,18,15,21,30.50
2015,08,18,15,22,30.60
2015,08,18,15,23,30.60
2015,08,18,15,24,30.70
2015,08,18,15,25,30.70
2015,08,18,15,26,30.70
2015,08,18,15,27,30.70
2015,08,18,15,28,30.60
2015,08,18,15,29,30.60
2015,08,18,15,30,30.60
2015,08,18,15,31,30.60
2015,08,18,15,32,30.60
2015,08,18,15,33,30.60
2015,08,18,15,34,30.60
2015,08,18,15,35,30.60
2015,08,18,15,36,30.60
2015,08,18,15,37,30.60
2015,08,18,15,38,30.60
2015,08,18,15,39,30.60
2015,08,18,15,40,30.60
2015,08,18,15,41,30.60
2015,08,18,15,42,30.70
2015,08,18,15,43,30.80
2015,08,18,15,44,30.80
2015,08,18,15,45,30.80
2015,08,18,15,46,30.80
2015,08,18,15,47,30.80
2015,08,18,15,48,30.80
2015,08,18,15,49,30.70
2015,08,18,15,50,30.60
2015,08,18,15,51,30.60
2015,08,18,15,52,30.60
2015,08,18,15,53,30.70
2015,08,18,15,54,30.70
2015,08,18,15,55,30.80
2015,08,18,15,56,30.90
2015,08,18,15,57,30.90
2015,08,18,15,58,30.80
2015,08,18,15,59,30.80
2015,08,18,16,00,30.70
2015,08,18,16,01,30.70
2015,08,18,16,02,30.70
2015,08,18,16,03,30.70
2015,08,18,16,04,30.70
2015,08,18,16,05,30.70
2015,08,18,16,06,30.70
2015,08,18,16,07,30.70
2015,08,18,16,08,30.70
2015,08,18,16,09,30.70
2015,08,18,16,10,30.70
2015,08,18,16,11,30.70
2015,08,18,16,12,30.70
2015,08,18,16,13,30.70
2015,08,18,16,14,30.70
2015,08,18,16,15,30.70
2015,08,18,16,16,30.70
2015,08,18,16,17,30.70
2015,08,18,16,18,30.70
2015,08,18,16,19,30.70
2015,08,18,16,20,30.80
2015,08,18,16,21,30.80
2015,08,18,16,22,30.90
2015,08,18,16,23,30.90
2015,08,18,16,24,31.00
2015,08,18,16,25,31.10
2015,08,18,16,26,31.20
2015,08,18,16,27,31.20
2015,08,18,16,28,31.30
2015,08,18,16,29,31.30
2015,08,18,16,30,31.30
2015,08,18,16,31,31.20
2015,08,18,16,32,31.10
2015,08,18,16,33,31.10
2015,08,18,16,34,31.10
2015,08,18,16,35,31.10
2015,08,18,16,36,31.10
2015,08,18,16,37,31.10
2015,08,18,16,38,31.10
2015,08,18,16,39,31.10
2015,08,18,16,40,31.10
2015,08,18,16,41,31.00
2015,08,18,16,42,31.00
2015,08,18,16,43,31.00
2015,08,18,16,44,31.00
2015,08,18,16,45,31.00
2015,08,18,16,46,31.00
2015,08,18,16,47,31.10
2015,08,18,16,48,31.20
2015,08,18,16,49,31.20
2015,08,18,16,50,31.30
2015,08,18,16,51,31.30
2015,08,18,16,52,31.30
2015,08,18,16,53,31.30
2015,08,18,16,54,31.30
2015,08,18,16,55,31.30
2015,08,18,16,56,31.30
2015,08,18,16,57,31.30
2015,08,18,16,58,31.30
2015,08,18,16,59,31.40
2015,08,18,17,00,31.40
2015,08,18,17,01,31.40
2015,08,18,17,02,31.40
2015,08,18,17,03,31.40
2015,08,18,17,04,31.50
2015,08,18,17,05,31.50
2015,08,18,17,06,31.50
2015,08,18,17,07,31.50
2015,08,18,17,08,31.50
2015,08,18,17,09,31.60
2015,08,18,17,10,31.60
2015,08,18,17,11,31.70
2015,08,18,17,12,31.70
2015,08,18,17,13,31.70
2015,08,18,17,14,31.80
2015,08,18,17,15,31.80
2015,08,18,17,16,31.80
2015,08,18,17,17,31.90
2015,08,18,17,18,31.90
2015,08,18,17,19,32.00